Terminal Aerodrome Forecast
Issued by NWS Tiyan, Guam

Home | Current Version | Previous Version | Text Only | Print | Product List | Glossary On
Versions: 1 2 3 4 5 6 7 8 9 10 11 12 13 14
000
FTPQ31 PGUM 310520
TAFGUM
TAF
PGUM 310520Z 3106/0112 11007KT P6SM VCSH FEW020 SCT040=

USA.gov is the U.S. government's official web portal to all federal, state and local government web resources and services.